Location: Ar Ranvel
(48.3000°N, 4.8833°W)
Time: 09:03:06
(UTC+00:00)

Cosmos 1626 - Pass Details

Date: 16 June 2021
Orbit: 489 x 493 km, 82.5° (Epoch: 01 August)

Event Time Altitude Azimuth Distance (km) Brightness Sun altitude
Exits shadow 21:27:17 11° 147° (SSE) 1,598 4.0 -8.5°
Maximum altitude 21:30:11 27° 90° (E) 974 3.3 -8.8°
Drops below altitude 10° 21:33:21 10° 32° (NNE) 1,698 5.1 -9.2°
Sets 21:35:41 0° 20° (NNE) 2,586 6.2 -9.4°
